EW6265 Weather Reports


Display with metric or nautical units.
time (UTC)temp
F
wind
direction
speed
MPH
gust
MPH
rain 1hr
in
rain 24hr
in
rain mn
in
humidity
%
barometer
mb
20171021154711 70 242 3.0 6.0 0.00 0.00 0.00 44 1024.6
20171021153226 70 250 1.0 6.0 0.00 0.00 0.00 46 1024.6
20171021151738 69 262 0.0 3.0 0.00 0.00 0.00 46 1024.7
20171021150239 68 263 2.0 5.0 0.00 0.00 0.00 45 1024.8
20171021144752 67 226 2.0 5.0 0.00 0.00 0.00 47 1024.8
20171021143315 66 128 0.0 0.0 0.00 0.00 0.00 47 1024.9
20171021141808 64 126 0.0 0.0 0.00 0.00 0.00 50 1024.9
20171021140353 62 126 0.0 0.0 0.00 0.00 0.00 54 1024.8
20171021134907 60 126 0.0 0.0 0.00 0.00 0.00 57 1024.7
20171021133434 58 126 0.0 0.0 0.00 0.00 0.00 64 1024.7
20171021132006 56 126 0.0 0.0 0.00 0.00 0.00 69 1024.7
20171021130614 54 126 0.0 0.0 0.00 0.00 0.00 74 1024.8
20171021125123 52 113 0.0 0.0 0.00 0.00 0.00 76 1024.7
20171021123650 50 68 0.0 0.0 0.00 0.00 0.00 78 1024.4
20171021122229 49 68 0.0 0.0 0.00 0.00 0.00 78 1024.2
20171021120751 48 68 0.0 0.0 0.00 0.00 0.00 77 1024.2
20171021115250 47 68 0.0 0.0 0.00 0.00 0.00 76 1023.8
20171021113748 47 68 0.0 0.0 0.00 0.00 0.00 75 1023.6
20171021112335 48 68 0.0 0.0 0.00 0.00 0.00 73 1023.4
20171021110856 49 68 0.0 3.0 0.00 0.00 0.00 72 1023.0
20171021105441 51 67 0.0 0.0 0.00 0.00 0.00 69 1022.9
20171021104009 52 67 0.0 0.0 0.00 0.00 0.00 68 1022.8
20171021102547 54 67 0.0 0.0 0.00 0.00 0.00 60 1022.7
20171021101127 53 67 0.0 3.0 0.00 0.00 0.00 59 1022.6
20171021095712 54 68 0.0 0.0 0.00 0.00 0.00 61 1022.4
20171021094234 54 68 0.0 0.0 0.00 0.00 0.00 61 1022.2
20171021092824 53 68 0.0 0.0 0.00 0.00 0.00 62 1022.1
20171021091356 53 68 0.0 4.0 0.00 0.00 0.00 61 1021.9
20171021085926 52 52 0.0 5.0 0.00 0.00 0.00 65 1022.0
20171021084448 50 40 0.0 0.0 0.00 0.00 0.00 70 1021.8
20171021083026 50 40 0.0 0.0 0.00 0.00 0.00 73 1021.7
20171021081602 51 40 0.0 0.0 0.00 0.00 0.00 72 1021.5
20171021080137 51 40 0.0 0.0 0.00 0.00 0.00 70 1021.4
20171021074716 52 40 0.0 0.0 0.00 0.00 0.00 69 1021.3
20171021073246 52 40 0.0 0.0 0.00 0.00 0.00 71 1021.2
20171021071818 50 40 0.0 0.0 0.00 0.00 0.00 75 1021.1
20171021070357 49 40 0.0 0.0 0.00 0.00 0.00 81 1021.2
20171021064930 48 40 0.0 0.0 0.00 0.00 0.00 80 1021.2
20171021063502 47 40 0.0 0.0 0.00 0.00 0.00 82 1021.2
20171021062037 47 40 0.0 0.0 0.00 0.00 0.00 84 1021.2
20171021060620 47 40 0.0 0.0 0.00 0.00 0.00 84 1021.1
20171021055149 48 40 0.0 0.0 0.00 0.00 0.00 85 1020.9
20171021053721 47 40 0.0 0.0 0.00 0.00 0.00 87 1021.0
20171021052321 47 40 0.0 0.0 0.00 0.00 0.00 87 1021.0
20171021050823 48 40 0.0 0.0 0.00 0.00 0.00 88 1021.0
20171021045342 48 40 0.0 0.0 0.00 0.00 0.00 88 1020.9
20171021043902 47 40 0.0 0.0 0.00 0.00 0.00 89 1020.8
20171021042422 47 40 0.0 0.0 0.00 0.00 0.00 89 1020.7
20171021040950 47 40 0.0 0.0 0.00 0.00 0.00 91 1020.5
20171021035520 48 40 0.0 0.0 0.00 0.00 0.00 90 1020.5
20171021034208 48 40 0.0 0.0 0.00 0.00 0.00 89 1020.5
20171021033145 48 40 0.0 0.0 0.00 0.00 0.00 88 1020.5
20171021031717 48 40 0.0 0.0 0.00 0.00 0.00 88 1020.4
20171021025726 49 40 0.0 0.0 0.00 0.00 0.00 85 1020.2
20171021024257 49 40 0.0 0.0 0.00 0.00 0.00 85 1020.0
20171021022833 50 40 0.0 0.0 0.00 0.00 0.00 85 1019.9
20171021021401 50 40 0.0 0.0 0.00 0.00 0.00 83 1019.6
20171021015940 51 40 0.0 0.0 0.00 0.00 0.00 85 1019.3
20171021014523 51 40 0.0 0.0 0.00 0.00 0.00 81 1019.0
20171021013054 52 40 0.0 0.0 0.00 0.00 0.00 79 1019.0
20171021011628 52 40 0.0 0.0 0.00 0.00 0.00 75 1018.9
20171021010201 53 40 0.0 0.0 0.00 0.00 0.00 74 1018.7
20171021004728 54 40 0.0 0.0 0.00 0.00 0.00 73 1018.4
20171021003306 54 40 0.0 0.0 0.00 0.00 0.00 71 1018.1
20171021001839 55 40 0.0 0.0 0.00 0.00 0.00 70 1018.1
20171021000429 56 40 0.0 0.0 0.00 0.00 0.00 67 1018.2
20171020234958 57 40 0.0 0.0 0.00 0.00 0.00 64 1018.0
20171020233526 58 40 0.0 0.0 0.00 0.00 0.00 61 1017.9
20171020232104 59 40 0.0 0.0 0.00 0.00 0.00 58 1017.7
20171020230629 60 40 0.0 0.0 0.00 0.00 0.00 55 1017.5
20171020225216 62 40 0.0 0.0 0.00 0.00 0.00 52 1017.2
20171020223741 63 40 0.0 0.0 0.00 0.00 0.00 50 1017.0
20171020222320 64 40 0.0 0.0 0.00 0.00 0.00 47 1016.8
20171020220841 65 40 0.0 0.0 0.00 0.00 0.00 43 1016.6
20171020215409 66 40 0.0 0.0 0.00 0.00 0.00 41 1016.4
20171020214001 68 40 0.0 6.0 0.00 0.00 0.00 39 1016.3
20171020212601 69 11 1.0 9.0 0.00 0.00 0.00 38 1016.1
20171020211049 69 48 0.0 8.0 0.00 0.00 0.00 36 1016.0
20171020205624 69 53 4.0 12.0 0.00 0.00 0.00 35 1015.8
20171020204200 69 74 3.0 13.0 0.00 0.00 0.00 34 1015.7
20171020202735 70 49 5.0 14.0 0.00 0.00 0.00 35 1015.6
20171020201249 70 30 1.0 14.0 0.00 0.00 0.00 36 1015.5
20171020195804 70 47 5.0 15.0 0.00 0.00 0.00 35 1015.5
20171020194350 70 76 3.0 14.0 0.00 0.00 0.00 34 1015.5
20171020192904 70 30 9.0 15.0 0.00 0.00 0.00 34 1015.3
20171020191430 70 360 3.0 9.0 0.00 0.00 0.00 37 1015.2
20171020190004 69 355 3.0 14.0 0.00 0.00 0.00 35 1015.1
20171020184520 69 38 6.0 19.0 0.00 0.00 0.00 35 1015.1
20171020183050 69 16 5.0 16.0 0.00 0.00 0.00 35 1015.0
20171020181548 68 38 0.0 15.0 0.00 0.00 0.00 36 1015.1
20171020180054 69 5 0.0 15.0 0.00 0.00 0.00 35 1015.2
20171020174630 68 31 5.0 15.0 0.00 0.00 0.00 34 1015.4
20171020173202 68 25 6.0 17.0 0.00 0.00 0.00 33 1015.6
20171020171731 68 55 3.0 13.0 0.00 0.00 0.00 34 1015.8
20171020170303 68 75 6.0 16.0 0.00 0.00 0.00 34 1016.1
20171020164841 67 74 4.0 18.0 0.00 0.00 0.00 35 1016.3
20171020163412 67 13 10.0 17.0 0.00 0.00 0.00 36 1016.4
20171020161937 66 81 2.0 14.0 0.00 0.00 0.00 38 1016.6
20171020160441 65 58 8.0 17.0 0.00 0.00 0.00 40 1016.8